User: anonymous   Login
Location: Launois
(49.6535°N, 4.5395°E)
Time: 04:41:38
(UTC+00:00)
Language:

Meteor 1-24 Rocket - Orbit

View from above orbital plane
View from above orbital plane
View from above satellite
View from above satellite

Ground track
Ground track

The orbit data is extracted from the following two-line orbital elements,

1 08800U 76032B   24194.59002979  .00000029  00000-0  85765-5 0  9992
2 08800  81.2486 224.6581 0095284  73.0613 288.0977 14.10415288481944
Epoch (UTC): 12 July 2024 14:09:38
Eccentricity: 0.0095284
inclination: 81.2486°
perigee height: 789 km
apogee height: 927 km
right ascension of ascending node: 224.6581°
argument of perigee: 73.0613°
revolutions per day: 14.10415288
mean anomaly at epoch: 288.0977°
orbit number at epoch: 48194

The dashed part of the orbit path shows where the satellite is in the earth's shadow,  

DLR